Back to catalog

PROSPERO

BLACK ARROW

AliveSciencePO
NORAD 5580·PAYLOAD·🇬🇧 United Kingdom

Launched Oct 28, 1971 from Woomera Range Complex

Loading…

Next Passes (next 24 hours)

TLE

FreshSource: Space-Track

Epoch: Sep 14, 2026, 07:28 UTC

1 05580U 71093A   26257.31141714  .00001247  00000-0  26498-3 0  9998
2 05580  82.0385 212.5899 0499882 331.7224  25.7604 14.01844152761013

Track PROSPERO in real time with AllMySat

Download on the App Store